Home > Weather > Labrador City > Past weeks

Flag for Canada Weather for the Past 2 Weeks in Labrador City, Newfoundland and Labrador, Canada

Now
-20 °F

Mostly cloudy.


Feels Like: -34 °F
Forecast: -22 / 1 °F
Wind: 5 mph from East

Location: Wabush Lake

Current Time: Feb 9, 2016 at 6:04:42 AM

Latest Report: Feb 9, 2016 at 4:00 AM


Visibility: 9 mi

Pressure: 30.27 "Hg (27.99 "Hg at 558m altitude)

Humidity: 75%

Dew point: -26 °F

Location of Labrador CityLocation

Historic Weather in Labrador City — Graph

°F

Labrador City Temperature Yesterday

Maximum temperature yesterday: -6 °F (at 4:00 PM)
Minimum temperature yesterday: -31 °F (at 8:00 AM)
Average temperature yesterday: -18 °F

High & Low Weather Summary for the Past Weeks

 TemperatureHumidityPressure
High27 °F (Jan 31, 9:00 PM)93% (Jan 26, 5:00 PM)30.51 "Hg (Jan 26, 5:00 PM)
Low-31 °F (Feb 8, 8:00 AM)57% (Feb 8, 12:00 PM)29.34 "Hg (Feb 1, 2:00 PM)
Average-4 °F76%29.89 "Hg
* Reported Jan 25 4:03 AM — Feb 9 4:00 AM, Labrador City, Weather by CustomWeather, © 2016

Note: Actual official high and low records may vary slightly from our data, if they occured in-between our weather recording intervals... More about our weather records

Advertising

Labrador City Weather History for the Previous 24 Hours

 ConditionsComfort  
Time TempWeatherWind HumidityBarometerVisibility
4:00 AM
Tue, Feb 9
-20 °FMostly cloudy.5 mph75%30.27 "Hg9 mi
3:00 AM-20 °FMostly cloudy.3 mph75%30.29 "Hg9 mi
2:00 AM-20 °FOvercast.5 mph75%30.32 "Hg9 mi
1:00 AM-20 °FClear.2 mph75%30.33 "Hg9 mi
12:00 AM-20 °FOvercast.3 mph75%30.36 "Hg9 mi
11:00 PM
Mon, Feb 8
-18 °FMostly cloudy.No wind75%30.38 "Hg9 mi
10:00 PM-22 °FPassing clouds.5 mph75%30.40 "Hg15 mi
9:00 PM-20 °FClear.3 mph75%30.41 "Hg15 mi
8:00 PM-18 °FClear.3 mph83%30.45 "Hg15 mi
7:00 PM-15 °FClear.2 mph76%30.45 "Hg15 mi
6:00 PM-13 °FSunny.3 mph76%30.45 "Hg15 mi
5:00 PM-8 °FPassing clouds.5 mph64%30.44 "Hg15 mi
4:00 PM-6 °FSunny.3 mph59%30.42 "Hg15 mi
3:00 PM-8 °FSunny.2 mph64%30.42 "Hg15 mi
2:00 PM-9 °FSunny.No wind64%30.42 "Hg15 mi
1:00 PM-11 °FSunny.2 mph63%30.44 "Hg15 mi
12:00 PM-13 °FSunny.2 mph57%30.47 "Hg15 mi
11:00 AM-18 °FSnow flurries. Sunny.3 mph69%30.49 "Hg15 mi
10:00 AM-24 °FSnow flurries. Sunny.3 mph68%30.51 "Hg15 mi
9:00 AM-29 °FSnow flurries. Passing clouds.No wind67%30.51 "Hg10 mi
8:00 AM-31 °FSnow flurries. Passing clouds.2 mph74%30.49 "Hg10 mi
7:00 AM-26 °FSnow flurries. Passing clouds.3 mph67%30.48 "Hg10 mi
6:00 AM-26 °FSnow flurries. Low clouds.No wind75%30.46 "Hg10 mi
Weather by CustomWeather, © 2016

See weather overviewHow to use our weather pages